Regional Weather Roundup
Issued by NWS

Home | Current Version | Previous Version | Text Only | Print | Product List | Glossary On
Versions: 1 2 3 4 5 6 7 8 9 10 11 12 13 14 15 16 17 18 19 20 21 22 23 24 25 26 27
000
ASCA42 TJSJ 090810
RWRPR
PUERTO RICO/U.S. VIRGIN ISLANDS HOURLY WEATHER ROUNDUP
NATIONAL WEATHER SERVICE SAN JUAN PR
400 AM AST FRI DEC 09 2016

PRZ001>002-007>008-010-090900-
PUERTO RICO

CITY           SKY/WX    TMP DP  RH WIND       PRES   REMARKS
SAN JUAN LMM   PTCLDY    79  75  89 CALM      30.00R
PONCE          PTCLDY    72  68  88 CALM      30.00
CEIBA          CLOUDY    79  72  78 E5        30.02R
$$

VIZ001>002-090900-
U.S. VIRGIN ISLANDS

CITY           SKY/WX    TMP DP  RH WIND       PRES   REMARKS
CHARLOTTE AMA  CLEAR     79  73  83 E8        29.99R
CHRISTIANSTED  PTCLDY    79  73  83 E9        29.99R
$$

HOURLY WEATHER ROUNDUP FOR THE NEWS MEDIA

CITY           SKY/WX    TMP DP  RH WIND       PRES   REMARKS
ORLANDO        LGT RAIN  57  48  72 N13       30.21R
NEW YORK       CLEAR     34  16  47 W17G28    30.05R WCI  23
NEWARK         CLEAR     32  16  51 W13       30.04R WCI  22
CHICAGO        CLEAR     21  15  78 W12       30.43R WCI   9
HARTFORD       CLEAR     33  18  53 W12G21    29.88R WCI  24
BOSTON         CLEAR     33  17  51 W18       29.85S WCI  22
DALLAS         PTCLDY    29  17  61 N7        30.67F WCI  22
PHILADELPHIA   PTCLDY    30  15  53 W14       30.15R WCI  19
LOS ANGELES    PTCLDY    56  51  84 E5        30.26S
WASHINGTON DC  PTCLDY    28  14  55 VRB6      30.25R WCI  22



USA.gov is the U.S. government's official web portal to all federal, state and local government web resources and services.